DELTA 1 DEB, 10871

Orbit data source: Space-Track

DELTA 1 DEB, 10871 is space debris in SSO originally from a launch on Thu, 29 Jul 1976 UTC launched from the Air Force Western Test Range (AFWTR). Debris objects in space refer to the collection of defunct objects orbiting the Earth. Examples of debris include non-operational satellites, rocket bodies, and fragments generated from explosions, collisions, or faulty payload assembly.

Loading next visibility...
Identifier
10871, 1976-077CZ
Orbit
SSO
Country
Flag of USUS
Related business
Manufacturer
Unknown
Mission
Spacecraft
Bus & Motor
Unknown
Mass
Unknown
Launch date (UTC)
1976-07-29 (50 years ago)
Launch vehicle
Unknown
Launch site
Air Force Western Test Range (AFWTR)
Object type
Payload
Rocket body
Debris
Shape & HBR
Unknown shape, 0.1 m
Radar Cross Section
Small (<0.1 m²)

Expand to show TLE details & history
Last TLE update: 17 hours ago

TLE from 17 hours ago
0 DELTA 1 DEB
1 10871U 76077CZ  26065.41635192  .00000375  00000-0  28482-2 0  9995
2 10871 101.8817  46.1637 0273988 321.9753 194.5762 12.37590084234641
Epoch: 2026-03-06T09:59Z
TLE epoch observation values (Epoch: 2026-03-06T09:59:32.805Z)
Latitude
23.68349°
Longitude
-82.60565°
Altitude
1,729.123 km
Speed
6.921 km/s
True Right ascension
15h 25m 44s
True Declination
23° 34' 21"
Sunlit
Object was in daylight at epoch
Visualization orbit readout
Latitude
Unknown
Longitude
Unknown
Altitude
Unknown
Speed
Unknown
Apparent Right ascension
Unknown
Apparent Declination
Unknown
Sunlit
N/A
Visualization observer readout
Local Sidereal Time
06:38:44
Azimuth
Unknown
Elevation
Unknown
Doppler factor
Unknown
Orbital elements
Apogee altitude
1,730.65 km
Perigee altitude
1,298.158 km
Semi-major axis
7,892.541 km
Eccentricity
0.0274
Inclination
101.8817°
RAAN
46.1637°
Arg. of periapsis
321.9753°
True anomaly
193.81145°
Mean anomaly
194.5762°
Eccentric anomaly
194.19134°
Mean motion
3.09541 °/min
Orbital period
116.3 mins
BSTAR
0.0028482
Loading maneuver chart data...
Computing Atmospheric mass density...
Loading historical data...
Loading historical data...
Loading historical data...
Loading historical data...
Loading historical data...
Loading historical data...
Loading historical data...

Documentation

Showing up to 5 results
|